21-10-2022, 00:00:04,    136,    0.0,    8.7,   0.00,   0.00, 1001.5,    0.0, -999.0
21-10-2022, 00:00:14,    135,    0.0,    8.7,   0.00,   0.00, 1001.5,    0.0, -999.0
21-10-2022, 00:00:24,    135,    0.0,    8.7,   0.00,   0.00, 1001.5,    0.0, -999.0
21-10-2022, 00:00:34,    135,    0.0,    8.6,   0.00,   0.00, 1001.5,    0.0, -999.0
21-10-2022, 00:00:44,    135,    0.0,    8.6,   0.00,   0.00, 1001.5,    0.0, -999.0
21-10-2022, 00:00:54,    135,    0.0,    8.5,   0.00,   0.00, 1001.5,    0.0, -999.0
21-10-2022, 00:01:04,    135,    0.0,    8.6,   0.00,   0.00, 1001.5,    0.0, -999.0
21-10-2022, 00:01:14,    135,    0.0,    8.6,   0.00,   0.00, 1001.5,    0.0, -999.0
21-10-2022, 00:01:24,    135,    0.0,    8.6,   0.00,   0.00, 1001.5,    0.0, -999.0
21-10-2022, 00:01:34,    135,    0.0,    8.5,   0.00,   0.00, 1001.5,    0.0, -999.0
21-10-2022, 00:01:44,    135,    0.0,    8.5,   0.00,   0.00, 1001.5,    0.0, -999.0
21-10-2022, 00:01:53,    135,    0.0,    8.5,   0.00,   0.00, 1001.5,    0.0, -999.0
21-10-2022, 00:02:04,    135,    0.0,    8.5,   0.00,   0.00, 1001.5,    0.0, -999.0
21-10-2022, 00:02:13,    135,    0.0,    8.5,   0.00,   0.00, 1001.5,    0.0, -999.0
21-10-2022, 00:02:23,    135,    0.0,    8.4,   0.00,   0.00, 1001.5,    0.0, -999.0
21-10-2022, 00:02:34,    135,    0.0,    8.4,   0.00,   0.00, 1001.5,    0.0, -999.0
21-10-2022, 00:02:43,    135,    0.0,    8.4,   0.00,   0.00, 1001.5,    0.0, -999.0
21-10-2022, 00:02:53,    135,    0.0,    8.4,   0.00,   0.00, 1001.5,    0.0, -999.0
21-10-2022, 00:03:03,    135,    0.0,    8.3,   0.00,   0.00, 1001.5,    0.1, -999.0
21-10-2022, 00:03:13,    135,    0.0,    8.4,   0.00,   0.00, 1001.5,    0.0, -999.0
21-10-2022, 00:03:23,    136,    0.0,    8.4,   0.00,   0.00, 1001.4,    0.0, -999.0
21-10-2022, 00:03:33,    135,    0.0,    8.5,   0.00,   0.00, 1001.5,    0.0, -999.0
21-10-2022, 00:03:43,    135,    0.0,    8.5,   0.00,   0.00, 1001.5,    0.0, -999.0
21-10-2022, 00:03:53,    136,    0.0,    8.5,   0.00,   0.00, 1001.5,    0.0, -999.0
21-10-2022, 00:04:03,    135,    0.0,    8.5,   0.00,   0.00, 1001.4,    0.1, -999.0
21-10-2022, 00:04:13,    135,    0.0,    8.5,   0.00,   0.00, 1001.5,    0.0, -999.0
21-10-2022, 00:04:23,    136,    0.0,    8.5,   0.00,   0.00, 1001.4,    0.0, -999.0
21-10-2022, 00:04:33,    136,    0.0,    8.4,   0.00,   0.00, 1001.4,    0.0, -999.0
21-10-2022, 00:04:43,    135,    0.0,    8.4,   0.00,   0.00, 1001.5,    0.1, -999.0
21-10-2022, 00:04:52,    138,    0.0,    8.5,   0.00,   0.00, 1001.4,    0.1, -999.0
21-10-2022, 00:05:03,    135,    0.0,    8.5,   0.00,   0.00, 1001.4,    0.0, -999.0
21-10-2022, 00:05:13,    135,    0.0,    8.5,   0.00,   0.00, 1001.4,    0.0, -999.0
21-10-2022, 00:05:22,    135,    0.0,    8.4,   0.00,   0.00, 1001.4,    0.0, -999.0
21-10-2022, 00:05:32,    135,    0.0,    8.4,   0.00,   0.00, 1001.4,    0.0, -999.0
21-10-2022, 00:05:43,    135,    0.0,    8.4,   0.00,   0.00, 1001.4,    0.0, -999.0
21-10-2022, 00:05:52,    135,    0.0,    8.4,   0.00,   0.00, 1001.4,    0.0, -999.0
21-10-2022, 00:06:02,    135,    0.0,    8.4,   0.00,   0.00, 1001.4,    0.0, -999.0
21-10-2022, 00:06:12,    135,    0.0,    8.4,   0.00,   0.00, 1001.4,    0.0, -999.0
21-10-2022, 00:06:22,    135,    0.0,    8.4,   0.00,   0.00, 1001.4,    0.0, -999.0
21-10-2022, 00:06:32,    135,    0.0,    8.4,   0.00,   0.00, 1001.4,    0.0, -999.0
21-10-2022, 00:06:42,    135,    0.0,    8.4,   0.00,   0.00, 1001.4,    0.0, -999.0
21-10-2022, 00:06:52,    135,    0.0,    8.5,   0.00,   0.00, 1001.4,    0.0, -999.0
21-10-2022, 00:07:02,    135,    0.0,    8.5,   0.00,   0.00, 1001.4,    0.0, -999.0
21-10-2022, 00:07:12,    135,    0.0,    8.5,   0.00,   0.00, 1001.4,    0.0, -999.0
21-10-2022, 00:07:22,    135,    0.0,    8.5,   0.00,   0.00, 1001.4,    0.0, -999.0
21-10-2022, 00:07:32,    135,    0.0,    8.5,   0.00,   0.00, 1001.4,    0.0, -999.0
21-10-2022, 00:07:42,    135,    0.0,    8.4,   0.00,   0.00, 1001.4,    0.0, -999.0
21-10-2022, 00:07:52,    135,    0.0,    8.4,   0.00,   0.00, 1001.4,    0.0, -999.0
21-10-2022, 00:08:01,    135,    0.0,    8.5,   0.00,   0.00, 1001.4,    0.0, -999.0
21-10-2022, 00:08:12,    135,    0.0,    8.5,   0.00,   0.00, 1001.4,    0.0, -999.0
21-10-2022, 00:08:22,    135,    0.0,    8.5,   0.00,   0.00, 1001.4,    0.0, -999.0
21-10-2022, 00:08:31,    135,    0.0,    8.5,   0.00,   0.00, 1001.4,    0.0, -999.0
21-10-2022, 00:08:41,    135,    0.0,    8.5,   0.00,   0.00, 1001.4,    0.0, -999.0
21-10-2022, 00:08:51,    136,    0.0,    8.5,   0.00,   0.00, 1001.4,    0.0, -999.0
21-10-2022, 00:09:01,    135,    0.0,    8.5,   0.00,   0.00, 1001.4,    0.0, -999.0
21-10-2022, 00:09:11,    135,    0.0,    8.5,   0.00,   0.00, 1001.4,    0.0, -999.0
21-10-2022, 00:09:21,    135,    0.0,    8.4,   0.00,   0.00, 1001.4,    0.0, -999.0
21-10-2022, 00:09:31,    136,    0.0,    8.4,   0.00,   0.00, 1001.4,    0.0, -999.0
21-10-2022, 00:09:41,    135,    0.0,    8.3,   0.00,   0.00, 1001.4,    0.0, -999.0
21-10-2022, 00:09:51,    135,    0.0,    8.2,   0.00,   0.00, 1001.4,    0.0, -999.0
21-10-2022, 00:10:01,    135,    0.0,    8.2,   0.00,   0.00, 1001.4,    0.0, -999.0
21-10-2022, 00:10:11,    135,    0.0,    8.2,   0.00,   0.00, 1001.4,    0.0, -999.0
21-10-2022, 00:10:21,    135,    0.0,    8.3,   0.00,   0.00, 1001.4,    0.0, -999.0
21-10-2022, 00:10:31,    135,    0.0,    8.2,   0.00,   0.00, 1001.4,    0.0, -999.0
21-10-2022, 00:10:41,    135,    0.0,    8.3,   0.00,   0.00, 1001.4,    0.0, -999.0
21-10-2022, 00:10:51,    135,    0.0,    8.3,   0.00,   0.00, 1001.4,    0.0, -999.0
21-10-2022, 00:11:01,    136,    0.0,    8.3,   0.00,   0.00, 1001.4,    0.0, -999.0
21-10-2022, 00:11:10,    135,    0.0,    8.3,   0.00,   0.00, 1001.4,    0.0, -999.0
21-10-2022, 00:11:21,    135,    0.0,    8.3,   0.00,   0.00, 1001.4,    0.0, -999.0
21-10-2022, 00:11:31,    135,    0.0,    8.2,   0.00,   0.00, 1001.4,    0.0, -999.0
21-10-2022, 00:11:40,    135,    0.0,    8.3,   0.00,   0.00, 1001.4,    0.1, -999.0
21-10-2022, 00:11:50,    135,    0.0,    8.3,   0.00,   0.00, 1001.4,    0.0, -999.0
21-10-2022, 00:12:00,    135,    0.0,    8.3,   0.00,   0.00, 1001.4,    0.0, -999.0
21-10-2022, 00:12:10,    135,    0.0,    8.3,   0.00,   0.00, 1001.4,    0.0, -999.0
21-10-2022, 00:12:20,    136,    0.0,    8.3,   0.00,   0.00, 1001.4,    0.0, -999.0
21-10-2022, 00:12:30,    135,    0.0,    8.3,   0.00,   0.00, 1001.4,    0.0, -999.0
21-10-2022, 00:12:40,    135,    0.0,    8.4,   0.00,   0.00, 1001.4,    0.1, -999.0
21-10-2022, 00:12:50,    135,    0.0,    8.4,   0.00,   0.00, 1001.4,    0.0, -999.0
21-10-2022, 00:13:00,    136,    0.0,    8.4,   0.00,   0.00, 1001.4,    0.0, -999.0
21-10-2022, 00:13:10,    135,    0.0,    8.4,   0.00,   0.00, 1001.4,    0.0, -999.0
21-10-2022, 00:13:20,    138,    0.0,    8.5,   0.00,   0.00, 1001.4,    0.0, -999.0
21-10-2022, 00:13:30,    135,    0.0,    8.4,   0.00,   0.00, 1001.4,    0.0, -999.0
21-10-2022, 00:13:40,    135,    0.0,    8.4,   0.00,   0.00, 1001.4,    0.0, -999.0
21-10-2022, 00:13:50,    135,    0.0,    8.4,   0.00,   0.00, 1001.4,    0.0, -999.0
21-10-2022, 00:14:00,    135,    0.0,    8.5,   0.00,   0.00, 1001.4,    0.0, -999.0
21-10-2022, 00:14:10,    135,    0.0,    8.3,   0.00,   0.00, 1001.4,    0.0, -999.0
21-10-2022, 00:14:19,    135,    0.0,    8.4,   0.00,   0.00, 1001.4,    0.0, -999.0
21-10-2022, 00:14:30,    135,    0.0,    8.4,   0.00,   0.00, 1001.4,    0.0, -999.0
21-10-2022, 00:14:39,    135,    0.0,    8.4,   0.00,   0.00, 1001.4,    0.0, -999.0
21-10-2022, 00:14:49,    135,    0.0,    8.4,   0.00,   0.00, 1001.4,    0.0, -999.0
21-10-2022, 00:14:59,    135,    0.0,    8.4,   0.00,   0.00, 1001.4,    0.0, -999.0
21-10-2022, 00:15:09,    135,    0.0,    8.2,   0.00,   0.00, 1001.4,    0.0, -999.0
21-10-2022, 00:15:19,    135,    0.0,    8.4,   0.00,   0.00, 1001.4,    0.0, -999.0
21-10-2022, 00:15:29,    135,    0.0,    8.4,   0.00,   0.00, 1001.4,    0.0, -999.0
21-10-2022, 00:15:39,    135,    0.0,    8.4,   0.00,   0.00, 1001.4,    0.0, -999.0
21-10-2022, 00:15:49,    135,    0.0,    8.4,   0.00,   0.00, 1001.4,    0.0, -999.0
21-10-2022, 00:15:59,    135,    0.0,    8.5,   0.00,   0.00, 1001.4,    0.0, -999.0
21-10-2022, 00:16:09,    136,    0.0,    8.3,   0.00,   0.00, 1001.4,    0.0, -999.0
21-10-2022, 00:16:19,    136,    0.0,    8.3,   0.00,   0.00, 1001.4,    0.0, -999.0
21-10-2022, 00:16:29,    135,    0.0,    8.4,   0.00,   0.00, 1001.4,    0.1, -999.0
21-10-2022, 00:16:39,    135,    0.0,    8.4,   0.00,   0.00, 1001.4,    0.0, -999.0
21-10-2022, 00:16:49,    136,    0.0,    8.3,   0.00,   0.00, 1001.4,    0.0, -999.0
21-10-2022, 00:16:59,    135,    0.0,    8.3,   0.00,   0.00, 1001.4,    0.0, -999.0
21-10-2022, 00:17:09,    135,    0.0,    8.3,   0.00,   0.00, 1001.4,    0.0, -999.0
21-10-2022, 00:17:18,    135,    0.0,    8.2,   0.00,   0.00, 1001.4,    0.0, -999.0
21-10-2022, 00:17:28,    136,    0.0,    8.3,   0.00,   0.00, 1001.4,    0.0, -999.0
21-10-2022, 00:17:39,    138,    0.0,    8.2,   0.00,   0.00, 1001.4,    0.0, -999.0
21-10-2022, 00:17:48,    135,    0.0,    8.2,   0.00,   0.00, 1001.4,    0.0, -999.0
21-10-2022, 00:17:58,    135,    0.0,    8.2,   0.00,   0.00, 1001.4,    0.0, -999.0
21-10-2022, 00:18:08,    135,    0.0,    8.2,   0.00,   0.00, 1001.4,    0.0, -999.0
21-10-2022, 00:18:18,    135,    0.0,    8.2,   0.00,   0.00, 1001.4,    0.0, -999.0
21-10-2022, 00:18:28,    135,    0.0,    8.1,   0.00,   0.00, 1001.4,    0.0, -999.0
21-10-2022, 00:18:38,    135,    0.0,    8.2,   0.00,   0.00, 1001.4,    0.0, -999.0
21-10-2022, 00:18:48,    135,    0.0,    8.2,   0.00,   0.00, 1001.4,    0.0, -999.0
21-10-2022, 00:18:58,    135,    0.0,    8.1,   0.00,   0.00, 1001.4,    0.0, -999.0
21-10-2022, 00:19:08,    135,    0.0,    8.1,   0.00,   0.00, 1001.4,    0.0, -999.0
21-10-2022, 00:19:18,    135,    0.0,    8.2,   0.00,   0.00, 1001.4,    0.0, -999.0
21-10-2022, 00:19:28,    135,    0.0,    8.1,   0.00,   0.00, 1001.4,    0.0, -999.0
21-10-2022, 00:19:38,    135,    0.0,    8.1,   0.00,   0.00, 1001.4,    0.0, -999.0
21-10-2022, 00:19:48,    135,    0.0,    8.0,   0.00,   0.00, 1001.4,    0.0, -999.0
21-10-2022, 00:19:57,    135,    0.0,    8.1,   0.00,   0.00, 1001.4,    0.0, -999.0
21-10-2022, 00:20:08,    136,    0.0,    8.1,   0.00,   0.00, 1001.4,    0.1, -999.0
21-10-2022, 00:20:18,    136,    0.0,    8.2,   0.00,   0.00, 1001.4,    0.1, -999.0
21-10-2022, 00:20:27,    135,    0.0,    8.2,   0.00,   0.00, 1001.4,    0.0, -999.0
21-10-2022, 00:20:37,    135,    0.0,    8.1,   0.00,   0.00, 1001.4,    0.0, -999.0
21-10-2022, 00:20:48,    135,    0.0,    8.1,   0.00,   0.00, 1001.4,    0.1, -999.0
21-10-2022, 00:20:57,    136,    0.0,    8.1,   0.00,   0.00, 1001.4,    0.1, -999.0
21-10-2022, 00:21:07,    135,    0.0,    8.1,   0.00,   0.00, 1001.4,    0.1, -999.0
21-10-2022, 00:21:17,    135,    0.0,    8.0,   0.00,   0.00, 1001.4,    0.0, -999.0
21-10-2022, 00:21:27,    135,    0.0,    8.0,   0.00,   0.00, 1001.4,    0.0, -999.0
21-10-2022, 00:21:37,    135,    0.0,    7.9,   0.00,   0.00, 1001.4,    0.1, -999.0
21-10-2022, 00:21:47,    135,    0.0,    8.1,   0.00,   0.00, 1001.4,    0.1, -999.0
21-10-2022, 00:21:57,    136,    0.0,    8.0,   0.00,   0.00, 1001.4,    0.0, -999.0
21-10-2022, 00:22:07,    136,    0.0,    7.9,   0.00,   0.00, 1001.4,    0.0, -999.0
21-10-2022, 00:22:17,    135,    0.0,    8.1,   0.00,   0.00, 1001.4,    0.0, -999.0
21-10-2022, 00:22:27,    135,    0.0,    8.0,   0.00,   0.00, 1001.4,    0.0, -999.0
21-10-2022, 00:22:37,    135,    0.0,    8.1,   0.00,   0.00, 1001.4,    0.0, -999.0
21-10-2022, 00:22:47,    135,    0.0,    8.1,   0.00,   0.00, 1001.4,    0.0, -999.0
21-10-2022, 00:22:57,    135,    0.0,    8.1,   0.00,   0.00, 1001.4,    0.0, -999.0
21-10-2022, 00:23:06,    136,    0.0,    8.1,   0.00,   0.00, 1001.4,    0.0, -999.0
21-10-2022, 00:23:17,    136,    0.0,    8.1,   0.00,   0.00, 1001.4,    0.0, -999.0
21-10-2022, 00:23:27,    136,    0.0,    8.0,   0.00,   0.00, 1001.4,    0.0, -999.0
21-10-2022, 00:23:36,    135,    0.0,    7.9,   0.00,   0.00, 1001.4,    0.0, -999.0
21-10-2022, 00:23:46,    135,    0.0,    8.0,   0.00,   0.00, 1001.4,    0.0, -999.0
21-10-2022, 00:23:57,    135,    0.0,    7.9,   0.00,   0.00, 1001.4,    0.0, -999.0
21-10-2022, 00:24:06,    135,    0.0,    7.9,   0.00,   0.00, 1001.4,    0.0, -999.0
21-10-2022, 00:24:16,    136,    0.0,    7.9,   0.00,   0.00, 1001.4,    0.0, -999.0
21-10-2022, 00:24:26,    135,    0.0,    7.9,   0.00,   0.00, 1001.4,    0.0, -999.0
21-10-2022, 00:24:36,    135,    0.0,    7.9,   0.00,   0.00, 1001.4,    0.0, -999.0
21-10-2022, 00:24:46,    135,    0.0,    8.0,   0.00,   0.00, 1001.4,    0.0, -999.0
21-10-2022, 00:24:56,    135,    0.0,    7.8,   0.00,   0.00, 1001.4,    0.0, -999.0
21-10-2022, 00:25:06,    135,    0.0,    7.9,   0.00,   0.00, 1001.4,    0.0, -999.0
21-10-2022, 00:25:16,    135,    0.0,    7.9,   0.00,   0.00, 1001.4,    0.0, -999.0
21-10-2022, 00:25:26,    135,    0.0,    7.9,   0.00,   0.00, 1001.4,    0.0, -999.0
21-10-2022, 00:25:36,    136,    0.0,    7.9,   0.00,   0.00, 1001.4,    0.0, -999.0
21-10-2022, 00:25:46,    135,    0.0,    7.9,   0.00,   0.00, 1001.4,    0.0, -999.0
21-10-2022, 00:25:56,    135,    0.0,    7.9,   0.00,   0.00, 1001.4,    0.0, -999.0
21-10-2022, 00:26:06,    135,    0.0,    7.9,   0.00,   0.00, 1001.4,    0.0, -999.0
21-10-2022, 00:26:15,    136,    0.0,    7.9,   0.00,   0.00, 1001.4,    0.0, -999.0
21-10-2022, 00:26:26,    135,    0.0,    7.9,   0.00,   0.00, 1001.4,    0.0, -999.0
21-10-2022, 00:26:36,    135,    0.0,    7.8,   0.00,   0.00, 1001.3,    0.0, -999.0
21-10-2022, 00:26:45,    135,    0.0,    7.8,   0.00,   0.00, 1001.4,    0.0, -999.0
21-10-2022, 00:26:55,    135,    0.0,    7.9,   0.00,   0.00, 1001.4,    0.0, -999.0
21-10-2022, 00:27:05,    135,    0.0,    7.9,   0.00,   0.00, 1001.4,    0.0, -999.0
21-10-2022, 00:27:15,    135,    0.0,    7.9,   0.00,   0.00, 1001.4,    0.0, -999.0
21-10-2022, 00:27:25,    136,    0.0,    7.9,   0.00,   0.00, 1001.4,    0.0, -999.0
21-10-2022, 00:27:35,    135,    0.0,    7.9,   0.00,   0.00, 1001.3,    0.1, -999.0
21-10-2022, 00:27:45,    136,    0.0,    7.9,   0.00,   0.00, 1001.4,    0.0, -999.0
21-10-2022, 00:27:55,    136,    0.0,    7.9,   0.00,   0.00, 1001.3,    0.0, -999.0
21-10-2022, 00:28:05,    135,    0.0,    7.9,   0.00,   0.00, 1001.4,    0.0, -999.0
21-10-2022, 00:28:15,    135,    0.0,    7.9,   0.00,   0.00, 1001.4,    0.0, -999.0
21-10-2022, 00:28:25,    135,    0.0,    7.9,   0.00,   0.00, 1001.4,    0.0, -999.0
21-10-2022, 00:28:35,    135,    0.0,    7.9,   0.00,   0.00, 1001.3,    0.0, -999.0
21-10-2022, 00:28:45,    135,    0.0,    7.9,   0.00,   0.00, 1001.4,    0.0, -999.0
21-10-2022, 00:28:55,    135,    0.0,    7.8,   0.00,   0.00, 1001.4,    0.0, -999.0
21-10-2022, 00:29:05,    135,    0.0,    7.9,   0.00,   0.00, 1001.4,    0.0, -999.0
21-10-2022, 00:29:15,    135,    0.0,    7.9,   0.00,   0.00, 1001.4,    0.0, -999.0
21-10-2022, 00:29:24,    136,    0.0,    7.8,   0.00,   0.00, 1001.4,    0.0, -999.0
21-10-2022, 00:29:35,    135,    0.0,    7.9,   0.00,   0.00, 1001.4,    0.0, -999.0
21-10-2022, 00:29:45,    135,    0.0,    7.9,   0.00,   0.00, 1001.4,    0.0, -999.0
21-10-2022, 00:29:54,    135,    0.0,    7.9,   0.00,   0.00, 1001.4,    0.0, -999.0
21-10-2022, 00:30:04,    135,    0.0,    7.9,   0.00,   0.00, 1001.3,    0.0, -999.0
21-10-2022, 00:30:14,    135,    0.0,    7.9,   0.00,   0.00, 1001.3,    0.0, -999.0
21-10-2022, 00:30:24,    135,    0.0,    7.9,   0.00,   0.00, 1001.3,    0.0, -999.0
21-10-2022, 00:30:34,    135,    0.0,    7.9,   0.00,   0.00, 1001.4,    0.0, -999.0
21-10-2022, 00:30:44,    135,    0.0,    7.9,   0.00,   0.00, 1001.4,    0.1, -999.0
21-10-2022, 00:30:54,    135,    0.0,    7.9,   0.00,   0.00, 1001.4,    0.1, -999.0
21-10-2022, 00:31:04,    136,    0.0,    7.9,   0.00,   0.00, 1001.4,    0.0, -999.0
21-10-2022, 00:31:14,    135,    0.0,    7.9,   0.00,   0.00, 1001.3,    0.0, -999.0
21-10-2022, 00:31:24,    135,    0.0,    7.9,   0.00,   0.00, 1001.4,    0.0, -999.0
21-10-2022, 00:31:34,    135,    0.0,    7.8,   0.00,   0.00, 1001.3,    0.0, -999.0
21-10-2022, 00:31:44,    135,    0.0,    7.9,   0.00,   0.00, 1001.4,    0.0, -999.0
21-10-2022, 00:31:54,    136,    0.0,    7.9,   0.00,   0.00, 1001.3,    0.0, -999.0
21-10-2022, 00:32:04,    135,    0.0,    7.9,   0.00,   0.00, 1001.3,    0.0, -999.0
21-10-2022, 00:32:14,    135,    0.0,    7.8,   0.00,   0.00, 1001.4,    0.0, -999.0
21-10-2022, 00:32:24,    135,    0.0,    7.9,   0.00,   0.00, 1001.3,    0.0, -999.0
21-10-2022, 00:32:33,    135,    0.0,    8.0,   0.00,   0.00, 1001.3,    0.0, -999.0
21-10-2022, 00:32:44,    136,    0.0,    7.9,   0.00,   0.00, 1001.3,    0.0, -999.0
21-10-2022, 00:32:53,    135,    0.0,    7.9,   0.00,   0.00, 1001.3,    0.0, -999.0
21-10-2022, 00:33:03,    136,    0.0,    7.9,   0.00,   0.00, 1001.3,    0.0, -999.0
21-10-2022, 00:33:13,    136,    0.0,    7.9,   0.00,   0.00, 1001.3,    0.0, -999.0
21-10-2022, 00:33:23,    135,    0.0,    7.9,   0.00,   0.00, 1001.3,    0.0, -999.0
21-10-2022, 00:33:33,    135,    0.0,    8.0,   0.00,   0.00, 1001.3,    0.0, -999.0
21-10-2022, 00:33:43,    135,    0.0,    8.0,   0.00,   0.00, 1001.3,    0.0, -999.0
21-10-2022, 00:33:53,    135,    0.0,    8.0,   0.00,   0.00, 1001.3,    0.0, -999.0
21-10-2022, 00:34:03,    135,    0.0,    8.0,   0.00,   0.00, 1001.3,    0.0, -999.0
21-10-2022, 00:34:13,    135,    0.0,    8.0,   0.00,   0.00, 1001.3,    0.0, -999.0
21-10-2022, 00:34:23,    135,    0.0,    8.0,   0.00,   0.00, 1001.3,    0.0, -999.0
21-10-2022, 00:34:33,    135,    0.0,    8.0,   0.00,   0.00, 1001.3,    0.0, -999.0
21-10-2022, 00:34:43,    135,    0.0,    8.0,   0.00,   0.00, 1001.3,    0.0, -999.0
21-10-2022, 00:34:53,    135,    0.0,    8.1,   0.00,   0.00, 1001.3,    0.0, -999.0
21-10-2022, 00:35:03,    135,    0.0,    8.1,   0.00,   0.00, 1001.3,    0.0, -999.0
21-10-2022, 00:35:13,    135,    0.0,    8.1,   0.00,   0.00, 1001.3,    0.0, -999.0
21-10-2022, 00:35:23,    135,    0.0,    8.1,   0.00,   0.00, 1001.3,    0.1, -999.0
21-10-2022, 00:35:32,    135,    0.0,    8.1,   0.00,   0.00, 1001.3,    0.0, -999.0
21-10-2022, 00:35:42,    135,    0.0,    8.1,   0.00,   0.00, 1001.2,    0.0, -999.0
21-10-2022, 00:35:53,    135,    0.0,    8.2,   0.00,   0.00, 1001.3,    0.0, -999.0
21-10-2022, 00:36:02,    140,    0.0,    8.2,   0.00,   0.00, 1001.3,    0.0, -999.0
21-10-2022, 00:36:12,    136,    0.0,    8.3,   0.00,   0.01, 1001.3,    0.1, -999.0
21-10-2022, 00:36:22,    135,    0.0,    8.3,   0.00,   0.00, 1001.3,    0.0, -999.0
21-10-2022, 00:36:32,    135,    0.0,    8.3,   0.00,   0.00, 1001.3,    0.0, -999.0
21-10-2022, 00:36:42,    135,    0.0,    8.4,   0.00,   0.00, 1001.3,    0.0, -999.0
21-10-2022, 00:36:52,    135,    0.0,    8.4,   0.00,   0.00, 1001.3,    0.0, -999.0
21-10-2022, 00:37:02,    136,    0.0,    8.4,   0.00,   0.00, 1001.3,    0.0, -999.0
21-10-2022, 00:37:12,    135,    0.0,    8.4,   0.00,   0.00, 1001.3,    0.0, -999.0
21-10-2022, 00:37:22,    135,    0.0,    8.4,   0.00,   0.00, 1001.3,    0.0, -999.0
21-10-2022, 00:37:32,    146,    0.0,    8.4,   0.00,   0.00, 1001.3,    0.0, -999.0
21-10-2022, 00:37:42,    135,    0.0,    8.5,   0.00,   0.00, 1001.3,    0.0, -999.0
21-10-2022, 00:37:52,    135,    0.0,    8.5,   0.00,   0.00, 1001.2,    0.0, -999.0
21-10-2022, 00:38:02,    135,    0.0,    8.5,   0.00,   0.00, 1001.2,    0.0, -999.0
21-10-2022, 00:38:11,    135,    0.0,    8.5,   0.00,   0.00, 1001.3,    0.0, -999.0
21-10-2022, 00:38:22,    135,    0.0,    8.5,   0.00,   0.00, 1001.3,    0.0, -999.0
21-10-2022, 00:38:32,    135,    0.0,    8.5,   0.00,   0.00, 1001.3,    0.0, -999.0
21-10-2022, 00:38:41,    136,    0.0,    8.4,   0.00,   0.00, 1001.3,    0.0, -999.0
21-10-2022, 00:38:51,    135,    0.0,    8.5,   0.00,   0.00, 1001.3,    0.0, -999.0
21-10-2022, 00:39:02,    135,    0.0,    8.5,   0.00,   0.00, 1001.2,    0.0, -999.0
21-10-2022, 00:39:11,    135,    0.0,    8.5,   0.00,   0.00, 1001.3,    0.0, -999.0
21-10-2022, 00:39:21,    135,    0.0,    8.6,   0.00,   0.00, 1001.3,    0.0, -999.0
21-10-2022, 00:39:31,    135,    0.0,    8.5,   0.00,   0.00, 1001.3,    0.0, -999.0
21-10-2022, 00:39:41,    135,    0.0,    8.5,   0.00,   0.00, 1001.3,    0.0, -999.0
21-10-2022, 00:39:51,    135,    0.0,    8.5,   0.00,   0.00, 1001.3,    0.1, -999.0
21-10-2022, 00:40:01,    135,    0.0,    8.5,   0.00,   0.00, 1001.2,    0.0, -999.0
21-10-2022, 00:40:11,    135,    0.0,    8.4,   0.00,   0.00, 1001.2,    0.0, -999.0
21-10-2022, 00:40:21,    136,    0.0,    8.4,   0.00,   0.00, 1001.2,    0.0, -999.0
21-10-2022, 00:40:31,    135,    0.0,    8.4,   0.00,   0.00, 1001.2,    0.0, -999.0
21-10-2022, 00:40:41,    136,    0.0,    8.5,   0.00,   0.00, 1001.2,    0.0, -999.0
21-10-2022, 00:40:51,    135,    0.0,    8.5,   0.00,   0.00, 1001.2,    0.0, -999.0
21-10-2022, 00:41:01,    136,    0.0,    8.4,   0.00,   0.00, 1001.3,    0.0, -999.0
21-10-2022, 00:41:11,    135,    0.0,    8.6,   0.00,   0.00, 1001.2,    0.0, -999.0
21-10-2022, 00:41:20,    135,    0.0,    8.6,   0.00,   0.00, 1001.2,    0.1, -999.0
21-10-2022, 00:41:31,    135,    0.0,    8.6,   0.00,   0.00, 1001.2,    0.0, -999.0
21-10-2022, 00:41:41,    136,    0.0,    8.6,   0.00,   0.00, 1001.3,    0.0, -999.0
21-10-2022, 00:41:50,    135,    0.0,    8.6,   0.00,   0.00, 1001.2,    0.0, -999.0
21-10-2022, 00:42:00,    135,    0.0,    8.6,   0.00,   0.00, 1001.2,    0.0, -999.0
21-10-2022, 00:42:11,    135,    0.0,    8.6,   0.00,   0.00, 1001.2,    0.0, -999.0
21-10-2022, 00:42:20,    135,    0.0,    8.6,   0.00,   0.00, 1001.2,    0.0, -999.0
21-10-2022, 00:42:30,    135,    0.0,    8.7,   0.00,   0.00, 1001.2,    0.0, -999.0
21-10-2022, 00:42:40,    136,    0.0,    8.6,   0.00,   0.00, 1001.2,    0.1, -999.0
21-10-2022, 00:42:50,    135,    0.0,    8.6,   0.00,   0.00, 1001.2,    0.0, -999.0
21-10-2022, 00:43:00,    135,    0.0,    8.6,   0.00,   0.00, 1001.2,    0.0, -999.0
21-10-2022, 00:43:10,    135,    0.0,    8.6,   0.00,   0.00, 1001.2,    0.0, -999.0
21-10-2022, 00:43:20,    135,    0.0,    8.6,   0.00,   0.00, 1001.2,    0.1, -999.0
21-10-2022, 00:43:30,    135,    0.0,    8.6,   0.00,   0.00, 1001.2,    0.0, -999.0
21-10-2022, 00:43:40,    135,    0.0,    8.5,   0.00,   0.00, 1001.2,    0.0, -999.0
21-10-2022, 00:43:50,    135,    0.0,    8.5,   0.00,   0.00, 1001.2,    0.0, -999.0
21-10-2022, 00:44:00,    135,    0.0,    8.4,   0.00,   0.00, 1001.2,    0.0, -999.0
21-10-2022, 00:44:10,    136,    0.0,    8.5,   0.00,   0.00, 1001.2,    0.0, -999.0
21-10-2022, 00:44:20,    135,    0.0,    8.6,   0.00,   0.00, 1001.1,    0.0, -999.0
21-10-2022, 00:44:29,    136,    0.0,    8.6,   0.00,   0.00, 1001.1,    0.0, -999.0
21-10-2022, 00:44:40,    135,    0.0,    8.5,   0.00,   0.00, 1001.1,    0.0, -999.0
21-10-2022, 00:44:50,    135,    0.0,    8.5,   0.00,   0.00, 1001.1,    0.1, -999.0
21-10-2022, 00:44:59,    135,    0.0,    8.4,   0.00,   0.00, 1001.1,    0.1, -999.0
21-10-2022, 00:45:09,    135,    0.0,    8.4,   0.00,   0.00, 1001.1,    0.0, -999.0
21-10-2022, 00:45:19,    136,    0.0,    8.5,   0.00,   0.00, 1001.1,    0.0, -999.0
21-10-2022, 00:45:29,    135,    0.0,    8.5,   0.00,   0.00, 1001.1,    0.0, -999.0
21-10-2022, 00:45:39,    135,    0.0,    8.5,   0.00,   0.00, 1001.1,    0.0, -999.0
21-10-2022, 00:45:49,    135,    0.0,    8.5,   0.00,   0.00, 1001.0,    0.1, -999.0
21-10-2022, 00:45:59,    135,    0.0,    8.5,   0.00,   0.00, 1001.0,    0.0, -999.0
21-10-2022, 00:46:09,    135,    0.0,    8.4,   0.00,   0.00, 1001.0,    0.0, -999.0
21-10-2022, 00:46:19,    135,    0.0,    8.5,   0.00,   0.00, 1001.0,    0.0, -999.0
21-10-2022, 00:46:29,    135,    0.0,    8.5,   0.00,   0.00, 1001.0,    0.0, -999.0
21-10-2022, 00:46:39,    136,    0.0,    8.5,   0.00,   0.00, 1001.1,    0.0, -999.0